[[{"header":{"parameterUnit":"m.s-1","parameterCategory":1,"la1":30.2991,"la2":30.254,"lo1":-89.0895,"lo2":-89.0444,"dy":0.0017,"dx":0.0017,"nx":28,"ny":28,"refTime":"2025-01-22T03:00:00:Z","depth":0,"parameterNumber":2,"parameterNumberName":"U-component_of_WINDS"},"data":[0,0,0,0,0,0,0,0,0,0,0,0,0,0,0,0,0,0,0,0,0,0,0,0,0,0,0,0,0,0,0,0,0,0,0,0,0,0,0,0,0,0,0,0,0,0,0,0,0,0,0,0,0,0,0,0,0,0,0.6192,0.6191,0,0.6149,0.6148,0.6148,0.6101,0.61,0.6099,0.6099,0.6055,0.6054,0.6054,0,0,0,0,0,0,0,0,0,0,0,0,0,0.6235,0.6235,0.6192,0.6191,0.6191,0.6149,0.6148,0.6148,0.6101,0.61,0.6099,0.6098,0.6055,0.6054,0.6054,0,0,0,0,0,0,0,0,0,0,0,0,0,0.6207,0.6235,0.6192,0.6162,0.6159,0.6149,0.6148,0.6147,0.6101,0.61,0.6099,0.6098,0.6055,0.6054,0.6054,0.6069,0,0,0.6051,0.6051,0,0,0,0,0,0,0,0,0.6209,0.6205,0.6167,0.6164,0.6161,0.6129,0.6147,0.6121,0.6101,0.6123,0.6099,0.6098,0.608,0.6077,0.6072,0.6067,0.6065,0.6051,0.6051,0.605,0.605,0,0,0,0,0,0,0,0.6211,0.6207,0.6175,0.6167,0.6163,0.6152,0.6147,0.6142,0.6108,0.6121,0.6118,0.6113,0.6078,0.6072,0.607,0.6064,0.6051,0.605,0.605,0.605,0.6072,0.6073,0,0,0,0,0,0,0.6217,0.6209,0.6176,0.6174,0.6183,0.6152,0.6146,0.614,0.6108,0.6102,0.6114,0.6111,0.6074,0.6071,0.6068,0.6085,0.605,0.6049,0.6049,0.6071,0.6072,0.6073,0,0,0,0,0,0,0.6218,0.6214,0.6178,0.619,0.6185,0.6152,0.6146,0.614,0.6134,0.6103,0.6096,0.6114,0.6073,0.607,0.6069,0.6083,0.6049,0.6048,0.6069,0.6071,0.6073,0.6118,0,0,0,0,0,0,0.6219,0.6215,0.622,0.6191,0.6184,0.6179,0.6147,0.614,0.6133,0.6128,0.6101,0.6095,0.6072,0.6071,0.6069,0.6081,0.6048,0.6068,0.607,0.6072,0.6115,0.6121,0.6126,0,0,0,0,0,0.6221,0.6234,0.622,0.6217,0.619,0.618,0.6176,0.6149,0.6134,0.6139,0.6119,0.6096,0.6082,0.6071,0.6068,0.6081,0.6067,0.607,0.6072,0.6112,0.612,0.6126,0,0,0,0,0,0,0.6265,0.623,0.6214,0.6218,0.6203,0.6172,0.6177,0.6158,0.6146,0.6143,0.611,0.6104,0.6108,0.6094,0.6083,0.6095,0.6071,0.6073,0.6103,0.611,0.6115,0.6118,0.6047,0,0,0,0,0,0.6276,0.627,0.624,0.6246,0.6239,0.621,0.6205,0.6186,0.6168,0.6161,0.6141,0.6126,0.6118,0.6113,0.6104,0.6113,0.6107,0.612,0.6126,0.613,0.6132,0.6137,0.6143,0.6081,0.6081,0.6081,0,0,0.6296,0.6276,0.6275,0.6254,0.624,0.6236,0.6205,0.6201,0.6198,0.6161,0.6159,0.6145,0.6125,0.613,0.6132,0.6119,0.6148,0.6133,0.6137,0.6137,0.6141,0.6147,0.6152,0.6083,0.6082,0.6082,0,0,0.6332,0.6316,0.632,0.6307,0.6287,0.6267,0.6269,0.6242,0.6231,0.6229,0.6201,0.6198,0.6184,0.6172,0.6164,0.6198,0.6177,0.6196,0.6224,0.6229,0.6234,0.6239,0.6251,0.6256,0.6198,0.6198,0.6199,0,0.6361,0.6353,0.6325,0.6324,0.6316,0.6283,0.6288,0.6276,0.6254,0.6249,0.6236,0.622,0.6204,0.6206,0.6215,0.621,0.621,0.6199,0.6236,0.624,0.6243,0.6255,0.626,0.6201,0.6201,0.62,0.62,0,0.639,0.6385,0.6391,0.6371,0.6364,0.6365,0.6338,0.6335,0.6317,0.63,0.63,0.628,0.6267,0.6267,0.6249,0.6267,0.626,0.6242,0.6218,0.6252,0.6263,0.6267,0.6204,0.6204,0.6203,0.6202,0,0,0.645,0.6416,0.6418,0.6409,0.6385,0.6381,0.6383,0.637,0.6368,0.6354,0.6355,0.6346,0.6329,0.632,0.6301,0.6306,0.6336,0.6287,0.6286,0.6297,0.6355,0.6369,0.6375,0.6322,0.6323,0.6323,0.6357,0,0.6482,0.6481,0.6457,0.6463,0.6459,0.6429,0.643,0.6416,0.6401,0.6396,0.6378,0.6373,0.6351,0.6346,0.6349,0.6331,0.6347,0.6328,0.6322,0.6323,0.6328,0.638,0.6394,0.6427,0.6361,0.6362,0.6362,0,0.6518,0.6507,0.6513,0.649,0.6488,0.6489,0.6477,0.6472,0.6456,0.6445,0.6436,0.6415,0.6415,0.6393,0.6394,0.6382,0.6379,0.637,0.637,0.6368,0.6344,0.6379,0.6436,0.6442,0.6368,0.6368,0.6367,0,0.6562,0.6549,0.6551,0.6544,0.6518,0.6519,0.6509,0.6491,0.6486,0.6476,0.6472,0.6462,0.6457,0.645,0.6427,0.6413,0.6431,0.6406,0.6422,0.6422,0.6426,0.6426,0.6483,0.6424,0.6424,0.6424,0.6424,0,0.6599,0.6604,0.6571,0.6572,0.6577,0.655,0.6556,0.6543,0.6528,0.6527,0.6501,0.65,0.647,0.6467,0.6449,0.6453,0.6451,0.6442,0.6437,0.6444,0.6445,0.6441,0.6438,0.6425,0.6425,0.6425,0.6425,0,0.6648,0.6626,0.6627,0.6602,0.6596,0.6601,0.658,0.6581,0.6565,0.6564,0.6562,0.6537,0.6532,0.6509,0.6498,0.6486,0.6496,0.6487,0.6501,0.6498,0.6515,0.6514,0.6571,0.6577,0.6515,0.6515,0.6516,0,0.6673,0.6677,0.6653,0.6651,0.6641,0.6637,0.6632,0.6606,0.6602,0.6586,0.6589,0.6582,0.6574,0.6568,0.6549,0.6541,0.6531,0.6552,0.6529,0.6537,0.6532,0.6531,0.6532,0.6556,0.6557,0.6558,0.6558,0,0.672,0.671,0.6703,0.6694,0.6689,0.668,0.6669,0.6669,0.6641,0.6638,0.6632,0.6627,0.6617,0.661,0.66,0.6589,0.6569,0.6566,0.6569,0.6576,0.6584,0.658,0.6514,0.6564,0.6564,0.6563,0.6563,0.6563,0.6758,0.676,0.6745,0.6739,0.6729,0.672,0.672,0.6704,0.6699,0.6689,0.6675,0.6672,0.6658,0.6641,0.6633,0.663,0.6619,0.6623,0.6624,0.6626,0.663,0.6585,0.6628,0.6628,0.6628,0.6628,0.6628,0,0.6804,0.6793,0.6788,0.6775,0.6771,0.6753,0.6742,0.6739,0.6737,0.6726,0.672,0.6714,0.6709,0.669,0.6683,0.6684,0.6675,0.6683,0.6683,0.6681,0.664,0.6638,0.6691,0.6691,0.6691,0.6691,0.6691,0.6691,0.6827,0.683,0.6818,0.6817,0.6805,0.6802,0.6797,0.679,0.678,0.6776,0.6771,0.6759,0.6745,0.6737,0.6731,0.6726,0.6725,0.6736,0.6728,0.669,0.6684,0.6678,0.6676,0.6736,0.6736,0.6769,0.6769,0.6769]},{"header":{"parameterUnit":"m.s-1","parameterCategory":1,"la1":30.2991,"la2":30.254,"lo1":-89.0895,"lo2":-89.0444,"dy":0.0017,"dx":0.0017,"nx":28,"ny":28,"refTime":"2025-01-22T03:00:00:Z","depth":0,"parameterNumber":3,"parameterNumberName":"V-component_of_WINDS"},"data":[0,0,0,0,0,0,0,0,0,0,0,0,0,0,0,0,0,0,0,0,0,0,0,0,0,0,0,0,0,0,0,0,0,0,0,0,0,0,0,0,0,0,0,0,0,0,0,0,0,0,0,0,0,0,0,0,0,0,-4.2905,-4.2907,0,-4.3094,-4.3097,-4.3099,-4.306,-4.3056,-4.3053,-4.305,-4.3241,-4.3249,-4.3257,0,0,0,0,0,0,0,0,0,0,0,0,0,-4.2508,-4.2516,-4.2905,-4.2907,-4.291,-4.3094,-4.3097,-4.3099,-4.3061,-4.3056,-4.3052,-4.3048,-4.3238,-4.3248,-4.3258,0,0,0,0,0,0,0,0,0,0,0,0,0,-4.2687,-4.2518,-4.2905,-4.2913,-4.2915,-4.3094,-4.3097,-4.31,-4.3061,-4.3056,-4.3051,-4.3046,-4.3235,-4.3247,-4.326,-4.3441,0,0,-4.3298,-4.3303,0,0,0,0,0,0,0,0,-4.2677,-4.2702,-4.2909,-4.2913,-4.2916,-4.3048,-4.3027,-4.3214,-4.3063,-4.3006,-4.305,-4.3044,-4.3181,-4.3198,-4.3244,-4.345,-4.3458,-4.3299,-4.3306,-4.3312,-4.3315,0,0,0,0,0,0,0,-4.2665,-4.2694,-4.298,-4.2912,-4.2916,-4.2906,-4.2926,-4.3062,-4.312,-4.301,-4.3008,-4.3031,-4.3182,-4.3232,-4.3249,-4.3461,-4.3298,-4.331,-4.3317,-4.3322,-4.3824,-4.383,0,0,0,0,0,0,-4.265,-4.2683,-4.2974,-4.2986,-4.2781,-4.2918,-4.294,-4.3011,-4.3119,-4.313,-4.3035,-4.3029,-4.3214,-4.3234,-4.3255,-4.3475,-4.3312,-4.3323,-4.3331,-4.3818,-4.3826,-4.3832,0,0,0,0,0,0,-4.2641,-4.2676,-4.2966,-4.2834,-4.287,-4.293,-4.301,-4.3017,-4.3068,-4.3138,-4.3147,-4.3077,-4.321,-4.3238,-4.3395,-4.3481,-4.3329,-4.334,-4.3812,-4.3821,-4.3829,-4.3915,0,0,0,0,0,0,-4.263,-4.2673,-4.2743,-4.2836,-4.2877,-4.3104,-4.3016,-4.3025,-4.309,-4.3083,-4.3179,-4.319,-4.3208,-4.3377,-4.3408,-4.3495,-4.335,-4.3804,-4.3816,-4.3826,-4.3905,-4.3926,-4.3944,0,0,0,0,0,-4.2616,-4.2759,-4.2747,-4.2782,-4.2966,-4.3109,-4.3133,-4.3152,-4.3097,-4.3168,-4.3212,-4.3187,-4.3466,-4.3393,-4.3428,-4.352,-4.3799,-4.3812,-4.3825,-4.3896,-4.3922,-4.3943,0,0,0,0,0,0,-4.2675,-4.2772,-4.2759,-4.2937,-4.3015,-4.3102,-4.3192,-4.3178,-4.3273,-4.3262,-4.3281,-4.3303,-4.3464,-4.3507,-4.3424,-4.3701,-4.3625,-4.3645,-4.3667,-4.3692,-4.3711,-4.3697,-4.336,0,0,0,0,0,-4.2708,-4.2817,-4.2895,-4.3045,-4.3085,-4.3132,-4.3194,-4.3203,-4.3284,-4.3317,-4.3373,-4.3452,-4.3558,-4.3627,-4.3728,-4.3911,-4.3931,-4.3992,-4.4011,-4.4027,-4.4044,-4.4144,-4.4172,-4.3875,-4.3875,-4.3875,0,0,-4.2779,-4.2845,-4.2912,-4.3058,-4.312,-4.3231,-4.316,-4.328,-4.3363,-4.3335,-4.3487,-4.3531,-4.3621,-4.3792,-4.387,-4.3834,-4.4131,-4.4043,-4.4055,-4.4065,-4.4161,-4.4189,-4.4214,-4.3884,-4.3882,-4.3881,0,0,-4.2964,-4.3025,-4.3157,-4.322,-4.3314,-4.3345,-4.3376,-4.3466,-4.3495,-4.3648,-4.3629,-4.3727,-4.3909,-4.3974,-4.4031,-4.4241,-4.4222,-4.4274,-4.4375,-4.4472,-4.4496,-4.4517,-4.4592,-4.4619,-4.4291,-4.4291,-4.4291,0,-4.304,-4.3207,-4.3225,-4.3349,-4.3413,-4.3394,-4.3526,-4.3587,-4.3709,-4.3754,-4.3711,-4.394,-4.3998,-4.4185,-4.4236,-4.4283,-4.4319,-4.4263,-4.4491,-4.4512,-4.4532,-4.4604,-4.4632,-4.4297,-4.4296,-4.4296,-4.4295,0,-4.3296,-4.3412,-4.3507,-4.3627,-4.3702,-4.3829,-4.3866,-4.394,-4.3941,-4.3976,-4.4133,-4.4203,-4.4318,-4.4363,-4.4365,-4.455,-4.4524,-4.4486,-4.441,-4.4566,-4.4634,-4.4661,-4.4305,-4.4303,-4.4301,-4.43,0,0,-4.3524,-4.3652,-4.3686,-4.3741,-4.3844,-4.3934,-4.406,-4.4173,-4.4236,-4.4321,-4.4428,-4.4582,-4.4548,-4.4613,-4.4622,-4.4707,-4.487,-4.4659,-4.4662,-4.4696,-4.5078,-4.5106,-4.5138,-4.4857,-4.4863,-4.4867,-4.5071,0,-4.3719,-4.3942,-4.3962,-4.4163,-4.4271,-4.4254,-4.4364,-4.4438,-4.4474,-4.457,-4.4609,-4.4719,-4.4665,-4.4704,-4.4788,-4.4833,-4.4947,-4.4818,-4.4956,-4.4961,-4.4935,-4.5173,-4.5204,-4.5392,-4.5097,-4.5102,-4.5105,0,-4.3977,-4.407,-4.4282,-4.437,-4.4416,-4.4515,-4.462,-4.4713,-4.4797,-4.4817,-4.4889,-4.4887,-4.5017,-4.4935,-4.5113,-4.5025,-4.5083,-4.5113,-4.5121,-4.5135,-4.5043,-4.5194,-4.5453,-4.5481,-4.5147,-4.5144,-4.5141,0,-4.4122,-4.4301,-4.4451,-4.4498,-4.4604,-4.4674,-4.4721,-4.48,-4.4867,-4.4959,-4.5003,-4.5109,-4.5167,-4.5248,-4.5275,-4.5213,-4.5452,-4.5373,-4.5472,-4.5472,-4.5524,-4.552,-4.5796,-4.556,-4.556,-4.5559,-4.5559,0,-4.4338,-4.4469,-4.4518,-4.461,-4.4755,-4.4777,-4.492,-4.4963,-4.5034,-4.5134,-4.5125,-4.5219,-4.5247,-4.5346,-4.5367,-4.5512,-4.5538,-4.5558,-4.5562,-4.5559,-4.5557,-4.5597,-4.5585,-4.5567,-4.5565,-4.5564,-4.5562,0,-4.4526,-4.4564,-4.4726,-4.4814,-4.4839,-4.4942,-4.5017,-4.5105,-4.5139,-4.5266,-4.5297,-4.535,-4.5466,-4.5501,-4.564,-4.5654,-4.5824,-4.5815,-4.5796,-4.5796,-4.5894,-4.5884,-4.6206,-4.6249,-4.5984,-4.5987,-4.5989,0,-4.4661,-4.4761,-4.486,-4.4927,-4.4977,-4.5085,-4.5153,-4.5178,-4.525,-4.5353,-4.543,-4.5544,-4.5637,-4.5823,-4.5874,-4.598,-4.5975,-4.608,-4.5991,-4.5985,-4.5977,-4.5971,-4.5981,-4.6097,-4.61,-4.6102,-4.6104,0,-4.4899,-4.4913,-4.5012,-4.5119,-4.5202,-4.5287,-4.5368,-4.5423,-4.5459,-4.554,-4.5659,-4.5732,-4.5874,-4.5988,-4.6096,-4.6144,-4.6131,-4.6132,-4.6161,-4.6159,-4.6144,-4.6154,-4.5842,-4.6124,-4.6122,-4.6121,-4.612,-4.6119,-4.5065,-4.5153,-4.5236,-4.5348,-4.5412,-4.5489,-4.5576,-4.5622,-4.5722,-4.584,-4.5848,-4.5977,-4.6058,-4.6202,-4.6256,-4.6356,-4.6326,-4.6367,-4.6378,-4.6388,-4.6396,-4.6127,-4.6376,-4.6375,-4.6375,-4.6374,-4.6374,0,-4.5302,-4.5355,-4.5457,-4.5572,-4.566,-4.564,-4.5729,-4.5804,-4.5918,-4.5995,-4.6087,-4.6224,-4.6334,-4.6394,-4.6504,-4.6573,-4.657,-4.6601,-4.6596,-4.6608,-4.6417,-4.6382,-4.6602,-4.6602,-4.6602,-4.6602,-4.6602,-4.6602,-4.5436,-4.5584,-4.5608,-4.5788,-4.584,-4.5966,-4.6019,-4.609,-4.6152,-4.6305,-4.6397,-4.6435,-4.6506,-4.6621,-4.6721,-4.6736,-4.6777,-4.6812,-4.6823,-4.6644,-4.6621,-4.6599,-4.6565,-4.6821,-4.6821,-4.7005,-4.7007,-4.7008]}]]